Location: Fernhill
(41.0167°S, 175.6333°E)
Time: 08:59:13
(UTC+00:00)

Cosmos 2266 Rocket - Pass Details

Date: 08 November 2025
Orbit: 933 x 1006 km, 82.9° (Epoch: 12 December)

Event Time Altitude Azimuth Distance (km) Brightness Sun altitude
Exits shadow 10:29:11 82° 51° (NE) 970 3.8 -28.5°
Maximum altitude 10:29:21 83° 84° (E) 968 3.8 -28.5°
Drops below altitude 10° 10:35:30 10° 171° (S) 2,685 7.0 -28.9°
Sets 10:38:00 0° 171° (S) 3,632 7.8 -29.1°
